Tracking 19170 objects as of 22-May-2018
HD Live streaming from Space Station
objects crossing your sky now

GLOBALSTAR M059

Track GLOBALSTAR M059 now!
10-day predictions
GLOBALSTAR M059 is classified as:


NORAD ID: 25944
Int'l Code: 1999-058B
Perigee: 1,688.1 km
Apogee: 1,688.6 km
Inclination: 52.0 °
Period: 120.0 minutes
Semi major axis: 8059 km
RCS: 2.6566 m2 (large)
Launch date: October 18, 1999
Source: Globalstar (GLOB)
Launch site: TYURATAM MISSILE AND SPACE COMPLEX (TTMTR)
aabbcc
Your satellite tracking list
Your tracking list is empty




NASA's NSSDC Master Catalog

Two Line Element Set (TLE):
1 25944U 99058B   18141.81723841 -.00000076 +00000-0 +12626-3 0  9998
2 25944 052.0034 355.5952 0000263 082.2572 357.6640 11.99922211263910
Source of the keplerian elements: AFSPC